SCP
0 0 0 0 0 0 0 0 0 0 0 0 0 0 0 0 0 0 0 0 0 0 0 0 0 0 0 0 0 0 0 0 0 0 0 0 0 0
0 0 0 0 0 0 0 0 0 0 0 0 0 0 0 0 0 0 0 0 0 0 0 0 0 0 0 0 0 0 0 0 0 0 0 0 0 0
0 0 0 0 0 0 0 0 0 0 0 0 0 0 0 0 0 0 0 0 0 0 0 0 0 0 0 0 0 0 0 0 0 0 0 0 0 0
0 0 0 0 0 0 0 0 0 0 0 0 0 0 0 0 0 0 0 0 0 0 0 0 0 0 0 0 0 0 0 0 0 0 0 0 0 0
0 0 0 0 0 0 0 0 0 0 0 0 0 0 0 0 0 0 0 0 0 0 0 0 0 0 -0 0 0 0 0 -0 -0 0 0 0 0 0
0 -0 0 0 0 0 0 0 0 0 0 0 0 0 0 0 0 -0 0 0 0 0 0 0 0 0 0 0 0 0 0 0 0 0 0 0 0 0
0 0 0 0 0 0 0 0 0 0 0 0 0 0 0 0 0 0 -0 0 0 0 0 0 0 0 0 0 0 0 0 0 0 0 0 0 0 0
0 0 -0 0 0 0 0 0 -0 0 0 0 0 0 0 0 0 0 0 0 0 0 0 0 0 0 0 0 0 0 0 0 0 0 0 0 0 0
0 0 0 0 0 0 -0 0 0 0 0 0 0 0 0 0 0 0 -0 0 0 0 0 0 0 0 0 0 0 0 0 0 0 0 -0 -0 0 0
0 0 0 0 0 0 0 0 0 -0 -0 -0 -0 -0 0 0 0 0 0 0 -0 0 0 0 0 0 -0 0 0 0 0 0 0 0 0 -0 0 0
0 0 0 0 0 0 0 0 0 0 -0 -0 -0 -0 0 0 0 0 -0 -0 -0 0 0 0 0 0 0 -0 0 0 0 0 0 0 0 0 0 0
0 0 0 0 0 0 0 0 0 0 0 0 -0 -0 -0 0 0 0 0 -0 -0 -0 0 0 -0 -0 -0 0 -0 0 0 0 0 0 0 0 0 0
0 0 0 0 0 0 0 0 0 0 0 0 0 -0 -0 -0 -0 0 0 0 -0 -0 0 0 -0 -0 -0 0 0 0 -0 0 0 0 0 0 0 0
0 0 0 0 0 0 0 0 0 0 0 0 -0 -0 -0 -0 -0 -0 0 0 0 0 0 0 -0 -0 -0 0 0 0 0 0 -0 0 -0 -0 -0 -0
0 0 0 0 0 0 0 0 0 0 0 0 -0 -0 -0 -0 -0 -0 0 0 0 0 0 0 -0 -0 -0 -0 -0 0 0 0 -0 -0 -0 -0 0 -0
0 0 0 0 0 0 0 0 0 0 0 0 0 -0 -0 -0 -0 0 0 0 0 0 -0 0 -0 -0 -0 -0 0 0 0 0 -0 -0 -0 0 -0 -0
0 0 0 0 0 0 0 0 -0 -0 0 0 0 -0 -0 -0 -0 0 -0 -0 0 -0 -0 -0 0 -0 0 -0 -0 0 -0 0 -0 -0 0 0 0 0
0 0 0 0 0 0 0 0 -0 0 0 0 0 -0 -0 -0 -0 -0 -0 -0 -0 -0 0 -0 0 -0 -0 -0 0 0 0 0 0 0 0 0 0 0
0 0 0 0 0 0 0 0 0 0 0 0 -0 0 -0 -0 -0 0 -0 0 0 0 -0 -0 0 0 0 0 0 -0 0 0 0 0 0 0 0 0
0 0 0 0 0 0 0 0 -0 0 0 0 0 -0 -0 -0 -0 -0 -0 -0 0 0 -0 0 0 0 0 0 0 0 0 0 0 0 0 0 0 0
0 0 0 0 0 0 0 0 0 0 0 0 0 0 -0 0 -0 -0 -0 -0 0 -0 -0 0 0 0 0 0 0 0 0 0 0 0 0 0 0 0
0 0 0 0 0 0 0 0 0 0 0 0 0 0 0 0 0 -0 -0 0 0 -0 0 0 0 0 0 0 0 0 0 0 -0 -0 0 -0 0 0
0 0 0 0 0 0 0 -0 0 0 0 0 0 0 0 0 0 0 0 0 0 0 0 0 0 0 0 0 0 0 -0 -0 -0 -0 -0 -0 0 -0
Wind_Speed_500mb
34 23 14 10 5 8 10 15 18 15 17 16 33 37 48 43 35 33 33 36 36 34 35 35 34 33 34 36 34 37 36 47 43 42 44 43 48 42
27 25 21 18 15 13 14 13 15 14 15 25 37 36 31 24 20 25 26 26 27 31 32 28 29 23 20 21 29 33 33 37 35 36 36 35 37 38
26 24 22 18 17 16 18 23 24 25 24 24 19 26 29 24 16 18 20 21 24 26 29 30 28 25 21 25 26 28 28 29 27 25 25 25 25 26
30 28 28 28 23 24 23 21 19 19 19 20 17 25 19 23 25 29 32 29 28 26 26 26 27 29 26 25 27 33 29 28 23 23 28 24 26 26
34 33 30 29 30 27 25 24 22 21 21 22 24 24 23 28 28 35 36 36 28 25 23 20 19 13 17 24 33 34 29 27 25 29 33 32 28 28
42 29 28 31 31 25 22 21 20 21 23 25 25 28 28 34 33 38 40 39 35 8 9 17 19 14 18 23 30 31 28 29 29 30 32 33 27 27
44 39 35 34 31 26 23 22 21 27 29 30 35 27 33 34 32 39 44 39 30 19 20 16 22 16 18 26 25 24 24 26 26 28 31 31 27 28
48 51 46 40 34 30 27 22 26 33 34 31 24 26 30 30 34 37 39 40 41 29 27 26 11 17 24 27 31 23 26 20 21 26 28 30 28 29
41 43 42 42 40 36 29 28 24 39 35 33 31 30 31 32 35 37 35 35 35 32 26 19 14 21 29 36 36 19 18 18 23 24 24 25 27 28
35 39 39 38 40 37 28 25 24 27 30 35 33 29 32 31 28 36 33 31 27 24 19 18 25 34 38 32 16 12 12 20 22 25 30 32 28 29
32 35 36 32 32 35 29 24 25 25 26 30 34 36 37 31 30 32 31 27 33 29 20 22 31 40 36 5 6 11 13 20 25 27 29 33 34 30
28 31 34 32 33 31 34 35 23 28 32 28 40 41 42 38 30 28 32 21 25 22 15 34 26 40 16 5 20 16 19 24 26 31 33 28 29 31
31 35 35 35 34 38 33 30 27 36 28 39 45 44 42 43 44 31 23 19 25 20 25 25 31 27 17 27 15 10 28 26 26 29 29 26 23 17
36 36 36 36 37 39 37 32 36 34 38 50 53 49 56 49 45 34 21 21 22 20 27 29 28 20 20 23 18 26 30 19 27 32 25 20 15 7
36 37 35 35 38 41 36 35 34 40 52 55 55 55 57 47 40 32 16 11 14 18 18 21 26 13 15 18 25 29 37 27 22 26 22 20 18 4
34 37 39 37 36 40 39 37 39 45 46 51 54 59 64 41 35 26 27 22 15 16 20 24 25 14 14 17 20 27 27 18 26 21 18 16 14 12
37 43 52 55 54 52 45 42 46 54 54 48 56 57 54 37 32 24 22 23 19 18 22 23 16 11 12 15 16 28 21 16 22 15 12 17 15 13
45 48 57 57 53 55 53 46 52 57 53 52 48 52 47 35 30 24 20 20 21 19 19 23 15 13 13 16 20 27 17 13 18 13 11 14 16 19
48 51 58 57 59 58 58 54 54 52 56 52 48 43 43 31 29 24 21 20 20 17 17 22 16 14 12 12 12 23 16 12 14 13 15 14 15 20
47 50 55 58 61 65 63 59 54 60 64 55 45 37 35 28 26 23 20 17 18 15 23 14 13 11 12 14 17 19 11 11 8 3 17 21 20 18
42 48 54 59 65 70 67 60 55 64 64 61 51 41 35 24 23 21 15 16 16 17 20 11 13 9 9 8 12 18 23 27 26 20 6 3 20 26
39 47 55 60 68 73 72 65 59 64 66 63 53 37 30 24 18 15 17 17 13 14 14 16 13 12 11 17 21 27 33 38 43 43 40 39 32 25
40 45 53 61 72 74 76 67 60 65 64 65 53 35 28 23 16 15 13 11 11 11 15 15 14 17 21 23 29 33 33 33 33 34 34 33 32 31
Wind_Direction_500mb
30 25 27 46 31 1 359 357 350 322 318 314 333 323 318 324 329 325 314 300 291 286 283 292 287 284 281 280 281 275 272 283 280 283 286 281 273 271
20 20 24 21 5 348 331 334 332 322 326 317 318 323 327 335 347 331 325 320 309 294 284 288 281 276 302 308 320 304 294 286 288 290 289 285 278 271
14 10 4 355 345 333 329 326 326 324 324 322 337 359 14 7 350 350 338 328 315 307 291 286 283 269 276 287 294 289 283 286 294 304 307 301 295 283
16 18 23 23 17 13 20 32 25 13 354 344 350 347 353 357 357 355 348 333 310 299 300 300 283 267 259 273 286 284 274 283 294 303 312 306 303 296
26 27 28 26 25 23 29 30 30 25 15 3 357 356 353 345 340 343 342 340 322 296 299 292 291 307 295 302 291 278 278 277 285 292 310 306 292 282
22 17 11 4 360 6 8 1 1 2 357 351 344 341 342 343 337 341 344 344 346 303 321 296 304 300 306 315 303 283 274 278 302 288 300 306 296 290
36 34 33 28 22 9 357 7 7 354 343 334 320 342 347 344 346 344 342 343 348 358 330 311 292 299 318 320 316 289 274 279 288 298 303 303 293 286
47 44 42 37 35 28 25 19 14 9 1 352 350 343 339 338 335 337 338 342 344 344 328 331 304 313 319 322 325 299 278 274 297 301 303 299 292 285
35 29 25 21 24 29 30 32 44 29 25 11 357 350 342 336 331 333 330 330 330 331 329 330 314 308 312 314 317 299 280 299 306 305 306 305 295 298
12 7 7 6 357 356 5 14 10 7 9 11 6 354 339 333 322 327 324 323 324 335 328 316 322 318 317 310 302 286 287 304 304 300 304 300 290 284
4 3 2 0 6 2 358 341 347 345 341 356 360 350 350 341 332 325 323 328 335 341 308 336 327 322 333 331 266 341 301 305 309 308 302 298 293 284
13 17 19 17 11 5 2 355 355 357 343 339 352 347 342 340 339 334 343 332 342 340 308 331 329 336 326 291 305 293 296 307 314 311 306 306 298 285
17 16 17 15 11 1 360 1 356 358 359 351 350 343 348 346 342 325 324 319 324 316 314 324 328 332 322 322 344 302 324 320 318 319 320 316 314 303
24 19 15 11 6 4 3 4 358 358 348 347 348 349 347 349 344 339 315 300 304 308 312 325 327 319 311 332 335 324 337 331 324 332 331 336 327 316
16 13 7 9 6 6 359 4 3 352 347 347 347 342 346 340 336 331 319 338 332 304 321 329 338 321 303 304 317 329 334 340 337 339 346 352 1 352
15 15 9 2 2 9 4 4 359 354 346 340 335 339 349 342 344 336 344 343 345 339 350 342 337 322 302 302 318 329 338 335 339 349 359 1 5 8
6 6 7 5 359 358 360 357 349 346 347 342 341 346 349 347 345 349 337 345 347 342 350 331 344 326 300 321 330 341 341 345 346 356 1 13 15 12
4 6 7 7 6 2 0 352 348 350 353 348 343 350 348 346 343 347 345 342 339 337 339 336 356 357 339 335 335 343 354 352 360 6 12 8 24 23
9 11 11 10 7 3 1 357 354 356 353 351 349 349 348 346 345 348 349 354 351 352 342 333 344 354 356 353 333 345 360 9 5 36 30 17 19 30
9 10 11 9 6 2 360 358 359 359 1 360 358 353 347 347 348 346 350 354 349 350 339 344 347 354 354 2 357 9 20 23 12 333 31 49 46 44
5 7 7 6 4 1 359 359 0 1 2 1 358 360 351 345 351 351 1 354 351 348 347 3 2 358 4 25 49 56 64 61 55 45 98 41 45 46
359 3 5 4 3 1 360 359 360 1 2 2 359 2 0 357 356 358 359 359 11 5 31 46 44 51 73 85 78 83 82 80 75 67 62 65 65 56
356 359 1 3 2 359 358 357 360 359 0 358 357 3 9 11 15 5 8 30 35 39 59 53 57 76 92 94 103 102 94 84 76 70 61 57 43 37
Wind_Speed_850mb
34 23 14 10 5 8 10 15 18 15 17 16 33 37 48 43 35 33 33 36 36 34 35 35 34 33 34 36 34 37 36 47 43 42 44 43 48 42
27 25 21 18 15 13 14 13 15 14 15 25 37 36 31 24 20 25 26 26 27 31 32 28 29 23 20 21 29 33 33 37 35 36 36 35 37 38
26 24 22 18 17 16 18 23 24 25 24 24 19 26 29 24 16 18 20 21 24 26 29 30 28 25 21 25 26 28 28 29 27 25 25 25 25 26
30 28 28 28 23 24 23 21 19 19 19 20 17 25 19 23 25 29 32 29 28 26 26 26 27 29 26 25 27 33 29 28 23 23 28 24 26 26
34 33 30 29 30 27 25 24 22 21 21 22 24 24 23 28 28 35 36 36 28 25 23 20 19 13 17 24 33 34 29 27 25 29 33 32 28 28
42 29 28 31 31 25 22 21 20 21 23 25 25 28 28 34 33 38 40 39 35 8 9 17 19 14 18 23 30 31 28 29 29 30 32 33 27 27
44 39 35 34 31 26 23 22 21 27 29 30 35 27 33 34 32 39 44 39 30 19 20 16 22 16 18 26 25 24 24 26 26 28 31 31 27 28
48 51 46 40 34 30 27 22 26 33 34 31 24 26 30 30 34 37 39 40 41 29 27 26 11 17 24 27 31 23 26 20 21 26 28 30 28 29
41 43 42 42 40 36 29 28 24 39 35 33 31 30 31 32 35 37 35 35 35 32 26 19 14 21 29 36 36 19 18 18 23 24 24 25 27 28
35 39 39 38 40 37 28 25 24 27 30 35 33 29 32 31 28 36 33 31 27 24 19 18 25 34 38 32 16 12 12 20 22 25 30 32 28 29
32 35 36 32 32 35 29 24 25 25 26 30 34 36 37 31 30 32 31 27 33 29 20 22 31 40 36 5 6 11 13 20 25 27 29 33 34 30
28 31 34 32 33 31 34 35 23 28 32 28 40 41 42 38 30 28 32 21 25 22 15 34 26 40 16 5 20 16 19 24 26 31 33 28 29 31
31 35 35 35 34 38 33 30 27 36 28 39 45 44 42 43 44 31 23 19 25 20 25 25 31 27 17 27 15 10 28 26 26 29 29 26 23 17
36 36 36 36 37 39 37 32 36 34 38 50 53 49 56 49 45 34 21 21 22 20 27 29 28 20 20 23 18 26 30 19 27 32 25 20 15 7
36 37 35 35 38 41 36 35 34 40 52 55 55 55 57 47 40 32 16 11 14 18 18 21 26 13 15 18 25 29 37 27 22 26 22 20 18 4
34 37 39 37 36 40 39 37 39 45 46 51 54 59 64 41 35 26 27 22 15 16 20 24 25 14 14 17 20 27 27 18 26 21 18 16 14 12
37 43 52 55 54 52 45 42 46 54 54 48 56 57 54 37 32 24 22 23 19 18 22 23 16 11 12 15 16 28 21 16 22 15 12 17 15 13
45 48 57 57 53 55 53 46 52 57 53 52 48 52 47 35 30 24 20 20 21 19 19 23 15 13 13 16 20 27 17 13 18 13 11 14 16 19
48 51 58 57 59 58 58 54 54 52 56 52 48 43 43 31 29 24 21 20 20 17 17 22 16 14 12 12 12 23 16 12 14 13 15 14 15 20
47 50 55 58 61 65 63 59 54 60 64 55 45 37 35 28 26 23 20 17 18 15 23 14 13 11 12 14 17 19 11 11 8 3 17 21 20 18
42 48 54 59 65 70 67 60 55 64 64 61 51 41 35 24 23 21 15 16 16 17 20 11 13 9 9 8 12 18 23 27 26 20 6 3 20 26
39 47 55 60 68 73 72 65 59 64 66 63 53 37 30 24 18 15 17 17 13 14 14 16 13 12 11 17 21 27 33 38 43 43 40 39 32 25
40 45 53 61 72 74 76 67 60 65 64 65 53 35 28 23 16 15 13 11 11 11 15 15 14 17 21 23 29 33 33 33 33 34 34 33 32 31
Wind_Direction_850mb
30 25 27 46 31 1 359 357 350 322 318 314 333 323 318 324 329 325 314 300 291 286 283 292 287 284 281 280 281 275 272 283 280 283 286 281 273 271
20 20 24 21 5 348 331 334 332 322 326 317 318 323 327 335 347 331 325 320 309 294 284 288 281 276 302 308 320 304 294 286 288 290 289 285 278 271
14 10 4 355 345 333 329 326 326 324 324 322 337 359 14 7 350 350 338 328 315 307 291 286 283 269 276 287 294 289 283 286 294 304 307 301 295 283
16 18 23 23 17 13 20 32 25 13 354 344 350 347 353 357 357 355 348 333 310 299 300 300 283 267 259 273 286 284 274 283 294 303 312 306 303 296
26 27 28 26 25 23 29 30 30 25 15 3 357 356 353 345 340 343 342 340 322 296 299 292 291 307 295 302 291 278 278 277 285 292 310 306 292 282
22 17 11 4 360 6 8 1 1 2 357 351 344 341 342 343 337 341 344 344 346 303 321 296 304 300 306 315 303 283 274 278 302 288 300 306 296 290
36 34 33 28 22 9 357 7 7 354 343 334 320 342 347 344 346 344 342 343 348 358 330 311 292 299 318 320 316 289 274 279 288 298 303 303 293 286
47 44 42 37 35 28 25 19 14 9 1 352 350 343 339 338 335 337 338 342 344 344 328 331 304 313 319 322 325 299 278 274 297 301 303 299 292 285
35 29 25 21 24 29 30 32 44 29 25 11 357 350 342 336 331 333 330 330 330 331 329 330 314 308 312 314 317 299 280 299 306 305 306 305 295 298
12 7 7 6 357 356 5 14 10 7 9 11 6 354 339 333 322 327 324 323 324 335 328 316 322 318 317 310 302 286 287 304 304 300 304 300 290 284
4 3 2 0 6 2 358 341 347 345 341 356 360 350 350 341 332 325 323 328 335 341 308 336 327 322 333 331 266 341 301 305 309 308 302 298 293 284
13 17 19 17 11 5 2 355 355 357 343 339 352 347 342 340 339 334 343 332 342 340 308 331 329 336 326 291 305 293 296 307 314 311 306 306 298 285
17 16 17 15 11 1 360 1 356 358 359 351 350 343 348 346 342 325 324 319 324 316 314 324 328 332 322 322 344 302 324 320 318 319 320 316 314 303
24 19 15 11 6 4 3 4 358 358 348 347 348 349 347 349 344 339 315 300 304 308 312 325 327 319 311 332 335 324 337 331 324 332 331 336 327 316
16 13 7 9 6 6 359 4 3 352 347 347 347 342 346 340 336 331 319 338 332 304 321 329 338 321 303 304 317 329 334 340 337 339 346 352 1 352
15 15 9 2 2 9 4 4 359 354 346 340 335 339 349 342 344 336 344 343 345 339 350 342 337 322 302 302 318 329 338 335 339 349 359 1 5 8
6 6 7 5 359 358 360 357 349 346 347 342 341 346 349 347 345 349 337 345 347 342 350 331 344 326 300 321 330 341 341 345 346 356 1 13 15 12
4 6 7 7 6 2 0 352 348 350 353 348 343 350 348 346 343 347 345 342 339 337 339 336 356 357 339 335 335 343 354 352 360 6 12 8 24 23
9 11 11 10 7 3 1 357 354 356 353 351 349 349 348 346 345 348 349 354 351 352 342 333 344 354 356 353 333 345 360 9 5 36 30 17 19 30
9 10 11 9 6 2 360 358 359 359 1 360 358 353 347 347 348 346 350 354 349 350 339 344 347 354 354 2 357 9 20 23 12 333 31 49 46 44
5 7 7 6 4 1 359 359 0 1 2 1 358 360 351 345 351 351 1 354 351 348 347 3 2 358 4 25 49 56 64 61 55 45 98 41 45 46
359 3 5 4 3 1 360 359 360 1 2 2 359 2 0 357 356 358 359 359 11 5 31 46 44 51 73 85 78 83 82 80 75 67 62 65 65 56
356 359 1 3 2 359 358 357 360 359 0 358 357 3 9 11 15 5 8 30 35 39 59 53 57 76 92 94 103 102 94 84 76 70 61 57 43 37